Погода в Ишне

Россия / Ярославская область     57°11′32″N   39°21′22″E
темп.,
°C
ветер,
м/с
пор.,
м/с
влажн.,
%
обл.,
%
осадки,
мм/ч
давл.,
гПа
погр.,
м
12 мая, ср
ср1200:00+10юв22820 0.0 102822
03:00+9в22900 0.0 102812
06:00+11в239069 0.0 1028114
09:00+17всв357729 0.0 1028413
12:00+21всв67645 0.0 1026984
15:00+22в710645 0.3 10241613
18:00+17юв61286100 2.9 1023484
21:00+15вюв51383100 3.4 1022398
13 мая, чт
чт1300:00+13юв5119297 0.0 1023476
03:00+13вюв4995100 0.0 1023332
06:00+13вюв489454 0.0 1022402
09:00+17юв577831 0.1 1022948
12:00+19вюв687014 0.3 10201189
15:00+21вюв6116259 0.6 10161830
18:00+15юв81391100 4.5 1016906
21:00+13ю359667 5.3 1016185
14 мая, пт
пт1400:00+11ю23955 0.0 101649
03:00+10ю3896100 0.0 1017184
06:00+11ю37955 0.0 1018208
09:00+15ююз3571100 0.0 1018643
12:00+18ю4659100 0.0 10181121
15:00+20ю466330 0.0 10171368
18:00+18ююв3681100 1.8 1016193
21:00+14всв239780 6.9 101568
15 мая, сб
сб1500:00+13вюв3895100 6.7 1014148
03:00+14юв3997100 6.9 1012226
06:00+15ююв41095100 0.0 1012279
09:00+19ю498699 1.3 1011424
12:00+21ю5107199 2.0 1011911
15:00+23ю57655 2.3 10091319
18:00+17ю81487100 2.3 1009649
21:00+13ююв5129225 2.6 1009331
16 мая, вс
вс1600:00+13ю3109860 0.0 1009266
03:00+13ю38975 0.0 1009186
06:00+14ююз410935 0.0 1010316
09:00+17юз578027 0.0 1011760
12:00+20юз686045 0.1 10111773
15:00+21юз695997 0.3 10112248
18:00+17юз610765 1.1 1012879
21:00+13юз48901 1.2 1013175